星链-30855 (STARLINK-30855 )

导读 | 豆包AI

STARLINK-30855是美国太空探索技术公司SpaceX星链星座的一员,于2023年11月3日发射入轨。卫星运行在近地轨道,平台为Starlink V1.0,搭载霍尔推进器,具备自主避撞能力。它服务于星链全球卫星互联网项目,为偏远地区提供高速低延迟宽带服务,同时也支持军事、航空等领域通信,助力缩小全球数字鸿沟,推动互联网普及。卫星寿命末期会离轨再入大气层烧毁,降低太空垃圾影响。

基本信息
目录编号:
58222
目录名称:
STARLINK-30855
国际标识:
2023-170S
轨道中心:
EARTH
卫星名称:
星链-30855
卫星全名:
星链-30855 (STARLINK-30855 )
卫星状态:
在轨 (已飞行909 天)
发射日期:
2023-11-03 UTC
国别 :
美国 (US)
星等 :
--
轨道信息
数据来源 国际轨道数据
星历时间: 2026-04-29T17:55:46+0800
1天前
查看轨道信息
半长轴: 6861.199km
偏心率: 0.0001596
轨道倾角: 43.003°
近地点辐角 271.132°
升交点赤经 268.031°
平近点角 88.935°
近地点: 481.966km
远地点: 484.158km
周期: 94.267分钟
每日圈数: 15.27576
详细信息
固有亮度:
5
最大亮度:
0.3
卫星平台:
Starlink v2.0 mini
覆盖范围:
全球
运营商:
太空探索技术公司
运营商所在国:
美国
制造商(研发单位):
太空探索技术公司
制造商所在国:
美国
使用方式:
暂无
卫星简介
星链(Starlink)计划是由太空探索技术公司(SpaceX)提出的一个巨型低轨卫星互联网星座项目,计划在2019年至2024年间在太空搭建由约1.2万颗卫星组成的“星链”网络,其中1584颗将部署在地球上空550千米处的近地轨道,并从2020年开始工作。该卫星仍在工作。
2D轨道图
3D轨道图
轨道高度分析图
轨道倾角分析图
轨道综合分析图
查看轨道综合分析图